La Nava - Corral De Ayllón Airport

Jump to: basic info | weather | comments

Related pages: nearby airports | nearby navaids | notams | map

Basic information (top)

Codes: LECA
Location: lon 41.410801, lat -3.448330, elev 3,280 ft / 1,000 m msl
Status: small_airport

Weather (top)

Current conditions for Torrejón Airport 55nm (102km) S (rec'd 2015/03/06 10:00Z):

LETO 061000Z 09001KT CAVOK 11/M06 Q1031 NOSIG

Airport forecast for Torrejón Airport 55nm (102km) S (rec'd 2015/03/06 06:30Z):

TAF LETO 060500Z 0606/0706 03005KT CAVOK TX17/0616Z TNM02/0607Z

Latest comments (top)

No comments yet for La Nava - Corral De Ayllón Airport

More... (top)

See also NOTAMs and nearby airports and navaids, or visit the La Nava - Corral De Ayllón Airport page at the main OurAirports website..